Temperature
18 18 18 18 18 18 18 18 18 18 18 18 18 18 18 18 18 18 18 18 18 18 18 18 18 18 17 17 17 17 17 17 17 17 17 17 17 17 17 16 16 16 16
18 18 18 18 18 18 18 18 18 18 18 18 17 17 18 18 17 17 18 18 18 18 18 18 18 18 18 17 17 17 17 17 17 17 17 17 17 16 16 16 16 16 16
18 18 18 18 18 18 18 18 18 18 17 17 17 17 17 17 17 17 17 18 18 18 18 18 18 18 17 17 17 17 17 17 17 17 17 17 17 16 16 16 16 16 16
18 18 18 18 18 18 18 18 18 18 17 17 17 17 17 17 17 17 17 17 18 18 18 18 18 18 17 17 17 17 17 17 17 17 17 17 16 16 16 16 16 16 16
18 18 18 18 18 18 18 18 17 17 17 17 17 17 17 17 17 17 17 17 17 17 17 18 18 18 17 17 17 17 17 17 17 17 17 17 16 16 16 16 16 16 16
18 18 18 18 18 18 18 18 17 17 17 17 18 17 17 18 18 18 17 17 17 17 17 17 17 17 17 17 17 17 17 17 17 17 17 16 16 16 16 16 16 16 16
18 18 18 18 18 18 18 18 17 17 17 17 18 18 18 18 18 18 18 18 17 17 17 17 17 17 17 17 17 17 17 17 17 16 16 16 16 16 16 16 16 16 16
18 18 18 18 18 18 18 17 17 17 17 17 18 18 19 18 18 18 17 17 17 17 17 17 17 17 17 17 17 17 17 17 17 17 16 16 16 16 16 16 16 16 16
18 18 18 17 17 17 17 17 17 17 17 17 18 18 19 19 18 18 17 17 17 17 17 17 17 17 17 16 16 17 17 17 17 16 16 16 16 16 16 16 16 16 16
18 18 17 17 17 17 17 17 17 17 17 18 18 18 18 18 18 18 18 18 17 17 17 17 17 17 16 16 16 17 17 17 16 16 16 16 16 16 16 16 16 16 15
17 17 17 17 17 17 17 17 17 17 17 17 17 18 18 18 18 18 18 18 17 17 17 17 17 17 16 16 16 16 17 17 16 16 16 16 16 16 16 16 15 15 15
17 17 17 17 17 17 17 17 17 17 17 17 17 17 17 18 18 18 18 17 17 17 17 17 17 16 16 16 16 16 16 16 16 16 16 16 16 15 15 15 15 15 15
17 17 17 17 17 17 17 17 17 17 17 17 17 17 17 17 17 17 18 17 17 17 17 17 16 16 16 16 16 16 16 16 16 16 15 15 15 15 15 15 15 15 15
17 17 17 16 17 17 17 17 16 17 17 17 17 17 17 17 17 17 17 17 17 17 17 16 16 16 16 15 15 16 15 16 16 15 15 15 15 15 15 15 15 15 15
17 16 16 16 16 16 16 16 16 16 16 16 16 16 16 16 16 16 16 17 17 18 18 16 16 16 15 15 15 15 15 15 15 15 15 15 15 15 15 15 15 15 14
16 16 16 16 16 16 16 16 16 16 16 16 16 16 16 16 16 16 16 16 16 17 17 17 16 15 15 15 15 15 15 15 15 15 15 15 15 15 15 15 14 14 14
16 16 16 16 16 16 16 16 16 16 16 16 16 16 16 16 16 16 16 16 16 16 16 16 16 15 15 15 15 15 14 15 14 15 15 15 14 14 14 14 14 14 14
16 16 16 15 15 15 15 15 15 15 15 15 15 15 15 15 15 15 15 15 15 15 15 15 15 15 15 14 14 15 14 14 14 14 15 14 14 14 14 14 14 14 14
15 15 15 15 15 15 15 15 15 15 15 15 15 15 14 14 14 15 15 15 15 15 15 15 15 14 14 14 14 14 14 14 14 14 14 14 14 14 14 14 14 13 13
15 15 15 15 15 15 15 14 14 14 14 14 14 14 14 14 14 14 14 14 14 14 14 14 15 14 14 14 14 14 14 14 14 14 14 14 14 14 14 14 13 13 13
15 15 15 15 15 14 14 14 14 14 14 14 14 14 14 14 14 14 14 14 14 14 14 14 14 14 14 14 14 14 14 14 14 14 14 13 13 13 13 13 13 13 13
15 15 15 14 14 14 14 14 14 14 14 13 13 13 13 13 13 14 14 13 13 13 13 14 14 14 13 13 13 14 14 14 14 14 13 13 13 13 13 13 13 13 13
14 14 14 14 14 14 14 14 14 13 13 13 13 13 13 13 13 13 13 13 13 13 13 13 13 13 13 13 13 13 13 13 13 13 13 13 13 13 13 13 13 13 13
14 14 14 14 14 14 14 14 14 13 13 13 12 12 12 12 12 12 12 12 12 12 12 12 12 12 12 12 12 12 12 12 13 13 13 13 13 13 13 13 13 13 12
14 14 14 14 13 13 14 13 13 13 12 12 12 12 12 12 12 12 12 11 11 12 12 12 12 12 12 12 12 12 12 13 13 13 13 13 13 13 13 13 12 12 12
14 14 13 13 13 13 13 13 13 12 12 12 12 12 12 12 12 12 11 11 11 11 11 11 11 11 12 12 12 12 12 12 13 13 13 12 13 13 13 13 12 12 12
Wind_Speed
4 5 4 4 4 4 4 4 5 6 5 5 5 5 5 4 4 5 7 10 8 7 7 6 6 6 7 6 6 6 6 5 5 6 6 6 6 7 7 8 8 9 10
4 4 4 4 4 5 5 5 6 5 5 5 5 5 4 4 4 3 5 8 9 7 6 5 6 6 6 6 6 6 6 5 6 6 6 6 6 7 7 8 8 9 10
4 3 4 4 5 5 6 5 6 5 5 5 5 4 3 3 3 3 3 4 6 8 7 5 5 5 5 6 6 6 6 5 6 6 6 6 7 7 7 7 8 9 9
4 3 4 4 5 4 4 4 4 5 4 4 3 3 3 3 3 3 3 3 3 5 7 8 6 5 5 5 5 6 6 5 6 6 6 6 6 7 7 7 8 9 9
4 3 4 4 4 3 3 3 4 4 4 3 3 3 2 2 2 3 3 3 4 4 5 9 8 6 5 5 4 5 5 5 5 6 6 5 6 6 6 6 7 8 9
4 4 4 4 3 4 4 4 4 3 2 2 2 3 2 2 2 3 2 3 3 4 4 4 6 7 6 5 4 4 4 4 4 5 5 5 5 6 6 6 6 7 8
4 4 4 4 3 4 4 4 3 3 2 2 2 2 3 3 3 2 2 1 2 3 3 3 2 3 5 7 5 4 4 5 5 5 5 5 5 5 6 6 7 8 8
4 4 4 3 3 3 3 3 2 1 2 1 0 1 2 2 2 1 2 2 1 2 3 3 3 2 2 3 5 5 5 5 5 6 5 5 5 5 5 5 6 8 8
3 4 3 3 2 2 3 2 1 1 1 1 1 1 0 1 1 2 1 1 1 1 2 2 3 2 2 2 3 5 4 4 4 5 5 5 5 5 5 5 6 7 8
3 3 2 2 1 1 2 1 1 1 1 1 0 1 2 1 1 1 1 2 1 1 1 1 1 2 2 2 3 3 4 3 4 5 5 5 6 6 6 6 6 7 7
3 3 2 2 1 1 1 1 0 1 1 1 1 1 0 1 2 2 1 0 0 0 1 1 1 1 2 2 2 3 4 3 3 4 4 5 4 5 5 5 6 6 7
2 3 3 2 1 1 1 0 0 1 1 1 2 2 1 1 1 1 2 2 1 0 0 1 1 1 1 2 2 5 4 3 2 2 3 3 4 4 3 4 5 5 6
2 2 2 2 1 1 1 1 0 1 1 1 2 2 2 2 2 2 2 2 2 2 1 1 1 1 1 1 3 4 4 3 3 3 2 3 2 2 2 3 4 4 5
2 2 1 1 1 1 1 1 1 1 1 1 2 2 2 1 1 2 2 2 2 3 2 1 1 1 0 1 3 3 2 4 4 4 3 3 2 2 2 2 4 3 4
1 1 1 0 1 1 1 1 1 1 1 2 2 2 2 1 1 2 2 3 3 4 2 2 1 1 1 1 1 2 1 4 5 4 4 3 3 2 3 2 3 3 4
1 1 0 0 0 0 1 2 2 1 2 1 1 1 2 2 1 2 2 3 3 4 4 2 2 1 1 1 2 2 2 5 5 5 5 5 4 3 3 3 3 3 4
1 0 1 1 1 1 1 1 2 2 2 2 2 2 2 3 2 2 2 2 3 3 3 3 1 1 1 3 1 2 3 3 4 7 6 5 4 4 4 4 4 5 5
0 1 1 1 1 1 2 2 3 2 2 2 2 2 3 2 2 3 2 3 3 3 4 3 3 2 2 3 3 4 3 3 3 8 8 6 5 5 5 5 5 5 5
1 1 1 1 2 2 2 2 2 2 2 2 2 2 3 2 3 2 3 3 3 3 3 4 3 2 3 3 3 4 3 3 4 6 9 8 7 7 6 6 5 6 6
1 1 1 1 2 2 2 2 2 2 2 2 2 2 3 3 3 3 3 3 3 3 3 4 4 3 3 3 3 3 3 3 3 3 4 5 8 9 8 8 7 7 7
1 1 1 2 2 2 2 2 2 2 2 3 3 3 2 2 3 3 4 3 3 4 4 4 4 4 3 2 3 4 4 3 3 3 3 4 5 6 8 10 9 9 8
1 1 2 2 2 1 3 3 3 2 2 3 3 3 3 2 1 1 2 4 5 5 5 5 5 4 4 4 3 4 4 4 3 2 3 4 4 4 5 6 9 10 10
2 2 1 1 1 1 2 1 3 3 3 3 3 3 4 2 1 2 2 4 4 5 5 6 6 5 5 4 4 5 4 5 4 2 4 5 4 5 5 5 11 10 10
1 1 1 1 1 1 2 2 4 4 3 3 3 4 4 3 2 3 4 4 4 4 4 5 4 5 4 4 5 6 6 6 6 5 4 5 4 5 4 4 12 12 12
1 1 1 1 1 1 2 2 4 3 3 4 3 3 3 3 2 4 4 5 5 4 4 4 3 4 4 5 6 6 6 6 5 4 3 4 4 4 5 5 7 13 13
1 1 0 1 1 1 2 2 5 3 3 3 3 3 2 1 1 3 4 5 6 5 5 5 6 8 8 8 8 7 7 6 5 4 3 4 5 4 4 4 4 7 9
Wind_Direction
49 50 51 47 56 67 78 90 97 99 98 99 93 96 100 103 112 116 120 127 134 143 154 160 168 168 170 172 174 177 177 186 192 188 188 184 179 179 181 185 187 188 189
53 55 59 51 61 71 71 79 85 91 87 87 87 85 90 99 103 113 123 134 141 143 151 165 171 171 173 174 174 177 181 185 185 185 190 187 179 180 186 193 192 191 188
59 65 67 68 69 78 81 82 85 89 93 91 85 82 84 88 111 118 132 139 144 148 149 156 163 167 170 168 170 175 177 179 181 183 184 186 184 181 186 192 192 187 185
66 63 73 75 79 84 85 84 89 90 87 82 80 78 84 100 114 129 133 143 143 140 144 145 146 155 161 166 166 170 170 173 177 173 169 172 178 183 190 196 189 185 186
72 71 72 76 86 84 85 83 81 80 85 81 89 94 93 98 113 117 122 132 132 138 137 138 146 142 146 154 157 159 161 165 163 164 166 172 175 173 181 184 186 192 195
79 76 83 79 83 86 85 83 84 79 78 74 79 88 93 103 105 105 121 120 127 136 134 134 147 148 147 143 141 138 145 152 153 160 164 169 172 173 180 185 186 191 197
75 74 78 79 78 82 81 91 93 103 98 91 108 108 108 111 104 106 105 107 122 132 132 134 144 142 149 155 152 155 160 163 166 170 172 177 185 191 195 198 200 198 202
77 85 79 91 87 96 99 95 93 90 109 119 96 130 143 138 140 119 145 157 141 150 148 145 136 152 160 148 138 159 173 177 182 184 181 179 187 198 203 206 206 203 206
70 76 85 82 91 107 108 116 129 166 153 143 349 330 326 108 137 136 130 131 151 157 160 137 145 152 156 132 133 146 156 179 183 189 189 187 187 190 196 201 206 209 212
68 78 83 91 100 99 114 169 133 225 228 219 173 322 330 331 274 171 160 133 143 159 147 140 131 134 148 145 124 118 158 186 197 198 198 198 195 194 198 207 213 214 213
76 71 74 83 91 95 83 31 61 261 241 274 280 266 230 225 265 254 216 169 137 159 160 171 165 148 143 150 153 131 150 174 190 199 205 207 207 208 206 210 215 213 210
88 73 75 71 72 55 47 339 249 221 280 312 299 279 258 248 246 243 226 224 236 232 200 196 224 182 144 152 130 108 134 147 167 199 209 210 215 216 205 211 214 213 210
92 75 63 59 51 45 14 335 275 312 289 284 279 281 279 278 274 258 237 234 245 240 229 214 194 206 192 172 126 126 147 160 171 177 186 190 199 202 193 205 208 206 198
74 78 74 65 40 16 355 343 304 325 301 292 288 292 282 290 296 270 251 246 243 234 220 229 210 204 221 184 101 164 163 168 177 175 176 175 169 188 207 203 194 183 180
111 97 103 73 32 5 341 305 328 322 312 288 278 257 273 282 280 280 270 269 269 265 251 207 236 212 229 192 156 188 203 149 176 181 181 180 174 174 184 178 178 166 162
67 94 79 19 8 309 308 290 282 308 293 297 303 308 290 279 282 276 275 276 278 278 279 272 233 261 279 255 168 209 204 156 168 179 185 183 177 171 171 176 182 168 160
32 354 348 338 328 330 318 291 296 292 294 304 301 289 287 300 290 285 287 285 280 273 260 267 263 265 239 267 252 238 223 203 164 163 170 175 177 178 177 170 175 174 169
323 334 321 322 309 324 316 302 301 308 299 298 306 312 300 298 302 293 296 287 286 283 260 258 256 249 247 245 248 250 240 217 196 159 169 175 182 185 183 180 177 171 165
290 320 315 310 315 317 312 313 309 311 309 306 307 301 297 298 293 298 288 280 273 262 254 253 255 251 249 246 245 241 235 233 231 172 174 180 186 189 186 187 186 180 173
260 298 299 304 302 300 306 315 307 307 310 310 304 293 292 290 285 284 272 270 268 268 250 248 253 249 239 231 242 247 237 222 244 224 196 193 185 186 186 187 187 183 179
249 273 283 290 289 276 316 321 296 289 301 301 297 289 290 315 342 313 299 294 281 268 260 254 252 252 249 251 258 259 257 245 229 236 229 214 194 200 191 191 189 187 185
266 276 281 285 294 325 41 2 308 293 293 289 292 292 273 247 248 274 310 310 298 276 277 277 268 269 272 268 278 274 270 263 255 221 246 242 224 225 214 204 174 179 188
253 273 287 303 314 355 42 1 307 286 283 288 288 288 286 286 275 279 265 250 261 267 272 274 275 279 276 277 280 271 271 272 274 267 255 255 242 243 233 184 161 179 191
227 254 284 287 295 16 40 336 303 271 280 282 280 278 278 282 292 297 279 273 266 257 255 254 266 275 282 290 277 271 267 252 246 238 237 254 249 249 243 200 169 182 190
228 230 259 275 277 339 31 331 307 276 276 277 274 274 275 271 331 308 274 268 266 260 237 234 255 266 289 282 276 265 261 255 254 241 224 261 269 261 246 224 183 182 189
214 224 231 297 322 330 32 352 311 281 285 282 271 255 206 239 293 290 269 266 266 270 277 258 237 235 242 238 230 249 261 260 262 255 221 247 264 264 257 231 208 191 194
Height
1507 1506 1505 1505 1503 1502 1500 1500 1501 1503 1505 1507 1509 1510 1512 1514 1517 1518 1519 1520 1521 1523 1524 1525 1526 1527 1528 1529 1530 1530 1531 1531 1532 1533 1533 1534 1535 1536 1537 1538 1539 1540 1541
1509 1509 1508 1507 1506 1505 1504 1503 1504 1506 1508 1509 1511 1512 1514 1516 1517 1518 1520 1520 1521 1523 1524 1525 1525 1526 1527 1528 1529 1529 1530 1530 1531 1531 1532 1533 1533 1534 1535 1536 1537 1538 1539
1512 1511 1511 1510 1509 1508 1508 1508 1508 1509 1511 1512 1513 1514 1515 1517 1518 1519 1520 1521 1522 1523 1523 1524 1525 1526 1527 1527 1528 1529 1529 1530 1530 1530 1531 1531 1532 1533 1533 1534 1535 1536 1537
1514 1513 1513 1512 1512 1511 1511 1511 1512 1513 1513 1515 1516 1517 1517 1518 1519 1520 1521 1522 1523 1524 1524 1524 1525 1526 1526 1527 1527 1528 1528 1529 1529 1529 1530 1530 1531 1531 1531 1532 1533 1534 1536
1515 1515 1515 1514 1514 1514 1514 1514 1515 1515 1516 1517 1518 1518 1519 1520 1520 1521 1521 1522 1523 1524 1525 1524 1524 1525 1526 1526 1527 1527 1527 1528 1528 1528 1529 1529 1529 1530 1530 1531 1532 1533 1534
1517 1516 1516 1516 1516 1516 1516 1516 1516 1517 1518 1519 1520 1520 1520 1521 1521 1522 1522 1523 1523 1524 1525 1525 1525 1525 1525 1525 1526 1526 1526 1526 1527 1527 1527 1528 1528 1528 1529 1529 1530 1531 1531
1518 1518 1518 1517 1517 1518 1518 1518 1518 1519 1520 1520 1521 1521 1522 1522 1522 1522 1523 1523 1524 1524 1524 1524 1524 1525 1525 1524 1524 1525 1525 1525 1525 1525 1526 1526 1526 1526 1527 1527 1528 1528 1529
1519 1519 1518 1519 1519 1519 1519 1519 1520 1520 1521 1521 1522 1522 1522 1524 1522 1523 1523 1523 1524 1524 1524 1524 1524 1523 1524 1524 1523 1523 1524 1524 1524 1524 1524 1524 1524 1524 1525 1525 1525 1526 1527
1520 1520 1519 1520 1519 1520 1520 1520 1520 1520 1521 1522 1522 1522 1522 1522 1523 1523 1523 1523 1523 1523 1523 1523 1523 1522 1523 1523 1523 1522 1522 1522 1522 1522 1522 1522 1522 1522 1522 1523 1523 1524 1524
1521 1521 1520 1520 1520 1520 1520 1520 1520 1520 1520 1521 1521 1521 1522 1522 1522 1522 1523 1522 1522 1522 1522 1523 1522 1522 1521 1521 1521 1521 1521 1521 1521 1520 1520 1520 1520 1520 1520 1521 1521 1521 1522
1521 1521 1520 1520 1520 1520 1520 1519 1519 1519 1520 1521 1521 1521 1521 1521 1521 1521 1521 1522 1522 1521 1521 1521 1521 1521 1520 1520 1519 1519 1519 1519 1518 1518 1518 1518 1518 1518 1518 1518 1519 1519 1519
1522 1521 1521 1520 1520 1520 1519 1519 1519 1519 1519 1519 1519 1520 1520 1520 1520 1520 1520 1520 1520 1520 1520 1519 1519 1519 1519 1519 1518 1518 1517 1517 1516 1516 1516 1516 1516 1516 1516 1516 1516 1517 1517
1522 1521 1521 1520 1520 1519 1519 1518 1518 1518 1518 1517 1518 1518 1518 1518 1518 1519 1518 1518 1518 1519 1518 1518 1518 1517 1517 1517 1517 1516 1516 1515 1515 1514 1514 1514 1514 1514 1513 1514 1514 1514 1514
1521 1520 1520 1519 1519 1518 1518 1517 1518 1517 1517 1516 1517 1516 1517 1517 1517 1517 1518 1518 1517 1517 1517 1517 1516 1516 1515 1515 1515 1514 1514 1514 1514 1513 1513 1512 1512 1512 1511 1511 1511 1512 1512
1521 1520 1519 1519 1518 1517 1517 1516 1517 1516 1516 1516 1516 1515 1515 1515 1515 1515 1516 1516 1517 1515 1515 1515 1515 1514 1514 1513 1513 1513 1513 1512 1512 1511 1511 1511 1510 1510 1509 1509 1510 1510 1510
1519 1519 1518 1518 1517 1516 1516 1515 1515 1515 1514 1514 1514 1513 1513 1514 1514 1514 1514 1514 1514 1514 1514 1514 1513 1513 1512 1512 1511 1511 1511 1510 1510 1509 1509 1509 1508 1508 1508 1508 1508 1508 1509
1518 1518 1517 1517 1516 1515 1515 1514 1514 1513 1513 1513 1512 1512 1512 1511 1512 1512 1512 1512 1512 1512 1512 1512 1512 1511 1510 1510 1510 1510 1510 1509 1508 1507 1507 1507 1507 1506 1506 1506 1506 1507 1507
1518 1517 1517 1516 1515 1515 1513 1513 1513 1512 1512 1511 1511 1510 1510 1510 1510 1510 1510 1510 1510 1509 1510 1509 1509 1509 1508 1508 1507 1507 1508 1508 1507 1506 1505 1505 1505 1505 1505 1505 1505 1505 1506
1516 1516 1516 1515 1514 1513 1512 1512 1511 1511 1510 1510 1509 1508 1508 1508 1508 1508 1507 1508 1508 1508 1507 1508 1507 1507 1507 1506 1506 1506 1506 1505 1506 1504 1503 1503 1503 1503 1503 1503 1503 1504 1504
1515 1515 1514 1514 1513 1512 1511 1510 1510 1509 1509 1508 1507 1507 1506 1506 1506 1505 1505 1505 1505 1505 1505 1505 1505 1505 1505 1504 1504 1504 1504 1504 1504 1503 1502 1501 1501 1501 1501 1501 1501 1502 1502
1514 1513 1513 1512 1511 1511 1510 1508 1508 1508 1507 1506 1506 1505 1504 1504 1503 1503 1503 1503 1503 1503 1503 1503 1503 1503 1503 1502 1502 1502 1502 1502 1501 1501 1500 1500 1500 1499 1499 1499 1499 1499 1500
1511 1511 1510 1510 1509 1509 1507 1506 1506 1505 1504 1504 1503 1503 1502 1501 1501 1500 1500 1500 1500 1500 1500 1500 1500 1500 1500 1500 1499 1500 1500 1499 1499 1499 1498 1498 1498 1498 1498 1497 1496 1496 1497
1509 1509 1508 1507 1506 1506 1505 1504 1503 1502 1502 1501 1500 1500 1500 1500 1498 1498 1497 1497 1496 1496 1496 1497 1497 1497 1497 1497 1496 1496 1496 1496 1496 1495 1495 1495 1495 1495 1495 1494 1493 1493 1494
1507 1506 1506 1505 1504 1503 1502 1501 1500 1500 1499 1498 1497 1497 1496 1496 1495 1494 1494 1494 1494 1493 1493 1493 1493 1493 1494 1493 1493 1493 1493 1493 1492 1492 1492 1492 1492 1492 1492 1491 1490 1490 1490
1504 1504 1503 1502 1501 1500 1499 1498 1498 1497 1497 1496 1495 1494 1493 1492 1492 1491 1491 1491 1491 1490 1490 1490 1489 1489 1489 1489 1489 1490 1490 1491 1490 1490 1489 1489 1489 1489 1488 1488 1487 1486 1487
1501 1501 1500 1500 1499 1498 1497 1496 1495 1495 1494 1493 1492 1491 1490 1489 1488 1488 1488 1487 1487 1487 1487 1487 1486 1486 1486 1486 1486 1486 1487 1487 1487 1487 1486 1486 1486 1486 1485 1485 1484 1484 1483